Content
SEND FEEDBACK

Daily
Averages
Monthly
Summary
United States of America

FRASER, MICHIGAN


Home > North America > United States > Michigan
Elevation: 583 feet     Latitude: 42 36N     Longitude: 082 50W

WEATHER
 
SELECT A DAY
Number of Records: 225,533;   Date Range: 1/1/95 - 10/22/14
 
SHARE

PRINT THIS DATA

[ ← Previous Day ]
WEATHER ALMANAC - JANUARY 31, 2013
[ Next Day → ]
[ °C ]   °F
Weather ElementAverageHighLow
Temperature22.4 °F26.6 °F (5:55 am)19.4 °F (7:55 pm)
Dewpoint12.8 °F17.6 °F (7:55 am)8.6 °F (2:55 pm)
Humidity67.2 %86 % (5:55 pm)50 % (2:55 pm)
Barometer29.70 in29.87 in (10:55 pm)29.46 in (5:55 am)
Wind Speed16.3 mph23 mph (2:55 pm)
Wind Gust35.7 mph (5:55 am)
Weather ElementAverage
Visibility8.6 mi
Wind DirectionW (271.3 °)

Weather ElementTotal
Precipitation---
Heating Degree Days42 (Base 65)
Averaged from 31 records on January 31, 2013
WEATHER CONDITIONS BREAKOUT
WIND DIRECTION BREAKOUT
WEATHER BY HOUR - JANUARY 31, 2013
[ °C ]   °F
Local TimeTemperatureDewpointHumidityBarometerVisibilityWind DirectionWind SpeedGust SpeedPrecipitationEventsConditions
5:55 AM26.6 °F15.8 °F64 %29.46 in10.0 miWest (270°)18.4 mph35.7 mphOvercast
6:55 AM24.8 °F14.0 °F64 %29.50 in10.0 miWest (280°)20.7 mph31.1 mphOvercast
7:11 AM24.8 °F15.8 °F69 %29.48 in10.0 miWest (270°)20.7 mph34.5 mphSnowLight Snow
7:55 AM23.0 °F17.6 °F80 %29.54 in3.0 miWest (270°)15.0 mph21.9 mphSnowLight Snow
8:55 AM24.8 °F14.0 °F64 %29.57 in10.0 miWest (260°)20.7 mph27.6 mphSnowLight Snow
9:55 AM23.0 °F15.8 °F74 %29.60 in10.0 miWest (270°)20.7 mph29.9 mphSnowLight Snow
10:55 AM24.8 °F15.8 °F69 %29.64 in4.0 miWest (260°)16.1 mph27.6 mphSnowLight Snow
11:55 AM24.8 °F14.0 °F64 %29.65 in3.0 miWest (260°)17.3 mph25.3 mphSnowLight Snow
12:55 PM24.8 °F12.2 °F59 %29.66 in10.0 miWest (270°)19.6 mph34.5 mphSnowLight Snow
1:43 PM24.8 °F12.2 °F59 %29.62 in10.0 miWest (260°)15.0 mph32.2 mphMostly Cloudy
1:55 PM24.8 °F10.4 °F54 %29.68 in10.0 miWest (260°)21.9 mph32.2 mphOvercast
2:55 PM24.8 °F8.6 °F50 %29.70 in10.0 miWest (270°)23.0 mph34.5 mphOvercast
3:55 PM24.8 °F8.6 °F50 %29.72 in10.0 miWest (260°)23.0 mph28.8 mphOvercast
4:55 PM23.0 °F10.4 °F59 %29.75 in10.0 miWest (270°)18.4 mph25.3 mphOvercast
4:57 PM23.0 °F10.4 °F59 %29.69 in7.0 miWest (270°)16.1 mph23.0 mphSnowLight Snow Showers
5:05 PM23.0 °F12.2 °F63 %29.70 in10.0 miWSW (240°)15.0 mph24.2 mphOvercast
5:43 PM23.0 °F12.2 °F63 %29.71 in7.0 miWNW (290°)16.1 mph23.0 mphSnowLight Snow Showers
5:47 PM21.2 °F14.0 °F74 %29.71 in1.5 miWNW (290°)17.3 mph23.0 mphSnowLight Snow Showers
5:51 PM21.2 °F15.8 °F80 %29.71 in1.2 miWest (280°)17.3 mph27.6 mphSnowLight Snow Showers
5:55 PM21.2 °F17.6 °F86 %29.77 in1.2 miWest (280°)13.8 mph27.6 mphSnowLight Snow Showers
6:02 PM21.2 °F17.6 °F86 %29.72 in7.0 miWest (280°)12.7 mph20.7 mphMostly Cloudy
6:06 PM21.2 °F15.8 °F80 %29.72 in10.0 miWNW (290°)13.8 mphMostly Cloudy
6:55 PM21.2 °F10.4 °F63 %29.79 in12.0 miWest (280°)16.1 mph25.3 mphOvercast
7:55 PM19.4 °F10.4 °F68 %29.83 in12.0 miWest (270°)11.5 mphOvercast
8:37 PM19.4 °F10.4 °F68 %29.78 in6.0 miWest (270°)13.8 mph24.2 mphSnowLight Snow Showers
8:45 PM19.4 °F10.4 °F68 %29.79 in12.0 miWest (260°)10.4 mphMostly Cloudy
8:55 PM19.4 °F12.2 °F74 %29.84 in12.0 miWest (260°)15.0 mph19.6 mphScattered Clouds
9:55 PM19.4 °F10.4 °F68 %29.86 in12.0 miWest (280°)15.0 mph21.9 mphMostly Cloudy
10:36 PM19.4 °F10.4 °F68 %29.82 in12.0 miWest (280°)10.4 mphSnowLight Snow Showers
10:46 PM19.4 °F10.4 °F68 %29.82 in12.0 miWest (280°)10.4 mphOvercast
10:55 PM19.4 °F10.4 °F68 %29.87 in12.0 miWest (280°)11.5 mphMostly Cloudy
Hourly data recorded from KMTC, located miles away from Fraser, Michigan







STORIES FROM OUR PARTNERS